Location: Bakov nad Jizerou
(50.4784°N, 14.9394°E)
Time: 23:30:01
(UTC+00:00)

Cosmos 2034 Rocket - Pass Details

Date: 16 June 2021
Orbit: 957 x 1001 km, 82.9° (Epoch: 23 July)

Event Time Altitude Azimuth Distance (km) Brightness Sun altitude
Rises 22:56:58 0° 348° (NNW) 3,677 8.7 -16.1°
Reaches altitude 10° 22:59:30 10° 346° (NNW) 2,720 7.6 -16.1°
Maximum altitude 23:05:39 67° 265° (W) 1,038 4.1 -16.1°
Enters shadow 23:09:27 24° 189° (S) 1,865 4.9 -16.1°
